Regional Weather Roundup
Issued by NWS

Home | Current Version | Previous Version | Graphics & Text | Print | Product List | Glossary On
Versions: 1 2 3 4 5 6 7 8 9 10 11 12 13 14 15 16 17 18 19 20 21 22 23 24 25 26 27 28 29 30 31 32 33 34 35 36 37 38 39 40 41 42 43 44 45 46 47 48 49 50
773
ASUS43 KOAX 231310
RWRNE

WEATHER ROUNDUP FOR NEBRASKA
NATIONAL WEATHER SERVICE OMAHA NE
800 AM CDT MON OCT 23 2017

NOTES: SATELLITE DATA IS BEING USED TO AUGMENT CLOUD COVER ABOVE
       12000 FEET.
       "FAIR" INDICATES FEW OR NO CLOUDS BELOW 12,000 FEET WITH NO
       SIGNIFICANT WEATHER AND/OR OBSTRUCTIONS TO VISIBILITY.


NEZ001>004-019>022-054>056-231400-
NEBRASKA PANHANDLE

CITY           SKY/WX    TMP DP  RH WIND       PRES   REMARKS
SCOTTSBLUFF    CLOUDY    48  21  34 W14       30.32R
ALLIANCE       MOCLDY    47  21  35 NW15      30.26R
CHADRON        CLEAR     43  23  45 W18       30.27R
GORDON         FAIR      37  32  82 W8        30.22R WCI  31
KIMBALL        CLOUDY    38  32  80 N17G26    30.34R WCI  28
SIDNEY         CLOUDY    45  27  49 NW18G30   30.31R
$$

NEZ057>060-069>072-079>082-231400-
SOUTHWEST NEBRASKA

CITY           SKY/WX    TMP DP  RH WIND       PRES   REMARKS
NORTH PLATTE   CLOUDY    49  38  65 NW14      30.20R
IMPERIAL       CLOUDY    46  37  71 N10       30.25R
LEXINGTON      MOCLDY    54  33  44 NW20G25   30.16R
MCCOOK         MOCLDY    52  35  52 N21G30    30.18R
OGALLALA       CLOUDY    49  36  61 NW7       30.26R
$$

NEZ005>010-023>029-035>040-094-231400-
NORTH CENTRAL NEBRASKA

CITY           SKY/WX    TMP DP  RH WIND       PRES   REMARKS
VALENTINE      CLEAR     51  25  36 NW20G28   30.14R
AINSWORTH      CLEAR     50  28  42 NW22G28   30.12R
BROKEN BOW     CLOUDY    56  26  31 NW25G38   30.12R
O`NEILL        PTCLDY    53  32  45 NW18G31   30.06S
ORD            CLOUDY    56  33  42 NW21G29   30.07R
THEDFORD       PTCLDY    50  28  41 NW12G20   30.17S
$$

NEZ041-046>049-061>064-073>077-083>087-231400-
SOUTH CENTRAL NEBRASKA

CITY           SKY/WX    TMP DP  RH WIND       PRES   REMARKS
GRAND ISLAND   PTCLDY    56  40  55 NW14      30.06R
AURORA         PTCLDY    56  38  50 NW10G17   30.03R
HASTINGS       PTCLDY    56  38  50 NW21G29   30.06R
HEBRON         CLOUDY    58  39  50 NW12      30.00R
HOLDREGE       CLOUDY    55  36  48 NW17G24   30.12R
KEARNEY        CLOUDY    56  34  43 NW18G24   30.09R
YORK           CLEAR     57  39  51 NW16G23   30.00R
$$

NEZ011>018-030>034-042>045-231400-
NORTHEAST NEBRASKA

CITY           SKY/WX    TMP DP  RH WIND       PRES   REMARKS
NORFOLK        CLOUDY    57  40  52 NW18G29   29.98R
ALBION         CLOUDY    58  37  45 NW26G38   30.04R
BLAIR          PTCLDY    57  39  51 N18G26    29.92S
COLUMBUS       MOCLDY    59  40  49 NW21G26   29.99R
FREMONT        CLOUDY    58  38  46 NW13G18   29.94F
TEKAMAH        CLOUDY    58  37  45 N9G17     29.93R
WAYNE          CLOUDY    58  36  43 NW16G23   29.98R
$$

NEZ050>053-065>068-078-088>093-231400-
SOUTHEAST NEBRASKA

CITY           SKY/WX    TMP DP  RH WIND       PRES   REMARKS
LINCOLN        CLEAR     58  38  47 N15       29.97R
OMAHA EPPLEY   MOCLDY    50  37  61 N8        29.92R
BEATRICE       CLEAR     51  40  66 NW10      29.97R
FALLS CITY     CLEAR     45  38  76 W6        29.90R
NEBRASKA CITY  PTCLDY    53  38  55 N15G21    29.92R
PLATTSMOUTH    CLOUDY    53  39  59 NW15G23   29.93R
$$

NEZ044-045-051>053-067-231400-
OMAHA AREA

CITY           SKY/WX    TMP DP  RH WIND       PRES   REMARKS
OMAHA EPPLEY   MOCLDY    50  37  61 N8        29.92R
BLAIR          PTCLDY    57  39  51 N18G26    29.92S
FREMONT        CLOUDY    58  38  46 NW13G18   29.94F
MILLARD        CLOUDY    58  40  51 NW9       29.92S
OFFUTT AFB     CLOUDY    52  37  57 N9        29.91R
PLATTSMOUTH    CLOUDY    53  39  59 NW15G23   29.93R
WAHOO          FAIR      57  38  48 NW8       29.95R
$$




USA.gov is the U.S. government's official web portal to all federal, state and local government web resources and services.